ボアッティーニ彗星

P/2009 Q4 ( Boattini )

English version
Home page
Updated on March 27, 2010

---------------------------------------------------------------------

・ プロフィール

発見日 2009年8月26日
発見光度 18.9等
発見者 A. Boattini (Catalina)

・ 写真集

・ 軌道要素

The following orbital elements are taken from MPC 67684:

Epoch 2009 Nov. 25.0 TT = JDT 2455160.5
T 2009 Nov. 19.9224 TT                                  MPC
q   1.320848             (2000.0)            P               Q
n   0.1772925      Peri.  320.0119      +0.0311222      -0.9881034
a   3.138166       Node   127.6718      +0.9587887      -0.0130617
e   0.579102       Incl.   10.9690      +0.2824105      +0.1532355
P   5.56
From 352 observations 2009 Aug. 26-Nov. 29, mean residual 0".6.

・ 星図

・ 光度変化

        m1 = 10.5 + 5 logΔ + 33 log r

---------------------------------------------------------------------

軌道要素はMPCのEphemerides and Orbital Elementsに掲載されたものです。
星図はステラナビゲータ Ver.8 (アストロアーツ) で作成したものです。
光度グラフはComet for Windowsで作成したものです。

---------------------------------------------------------------------

Copyright(C) Seiichi Yoshida (comet@aerith.net). All rights reserved.